Regional Weather Roundup
Issued by NWS Jackson, KY

Home | Current Version | Previous Version | Text Only | Print | Product List | Glossary Off
Versions: 1 2 3 4 5 6 7 8 9 10 11 12 13 14 15 16 17 18 19 20 21 22 23 24 25 26 27 28 29 30 31 32 33 34 35 36 37 38 39 40 41 42 43 44 45 46 47 48 49 50

000
ASUS43 KJKL 290710
RWRJKL

EAST KENTUCKY HOURLY WEATHER ROUNDUP
NATIONAL WEATHER SERVICE JACKSON KY
300 AM EDT FRI MAY 29 2015

NOTE: "FAIR" INDICATES FEW OR NO CLOUDS BELOW 12,000 FEET WITH
NO SIGNIFICANT WEATHER AND/OR OBSTRUCTIONS TO VISIBILITY.

* THESE REPORTS ARE NOT UNDER NWS QUALITY CONTROL AND MAY NOT
  REPORT WEATHER SUCH AS PRECIPITATION AND FOG.

KYZ079-080-083-085-087-088-110-112-115-119-120-290800
...EASTERN KENTUCKY...

CITY           SKY/WX    TMP DP  RH WIND       PRES   REMARKS
JACKSON        MOCLDY    68  63  84 SE3       30.16F
LONDON         PTCLDY    66  62  87 CALM      30.16S FOG
SOMERSET*      FOG       63  63 100 CALM      30.16S VSB 1/2
MONTICELLO*    CLEAR     66  65  97 CALM      30.17F
MIDDLESBORO*   CLEAR     65  65 100 CALM      30.17F
HARLAN APT*    CLOUDY    64  64 100 CALM      30.18F
HAZARD APT*    MOSUNNY   66  66 100 CALM      30.15
BLACK MTN*       N/A     61  59  94 CALM        N/A
PIKEVILLE APT* CLEAR     66  61  82 SE3       30.16F
BIG SANDY*     MOSUNNY   67  62  84 SE3       30.16F
MOREHEAD APT*  PTSUNNY   70  66  88 CALM      30.16F
$$

KYZ035-036-041-042-044-050-067-078-099-290800
...CENTRAL KENTUCKY...

CITY           SKY/WX    TMP DP  RH WIND       PRES   REMARKS
MT STERLING*   MOCLDY    68  68 100 W7        30.16S FOG
FLEMING/MASON* CLOUDY    68  68 100 CALM      30.15F
DANVILLE*      CLEAR     63  63 100 CALM      30.15F
RICHMOND*      PTCLDY    66  64  94 SE3       30.14S
LEXINGTON      PTCLDY    67  66  97 SE5       30.13F
FRANKFORT      MOCLDY    67  64  90 SE3       30.11F
$$

KYZ091>093-OHZ055-061-077-WVZ005-015-034-035-042-290800
...SOUTHERN OHIO/WEST VIRGINIA...

CITY           SKY/WX    TMP DP  RH WIND       PRES   REMARKS
COVINGTON      LGT RAIN  69  65  86 S8        30.14S
COLUMBUS       PTCLDY    68  61  78 E5        30.15F
DAYTON         MOCLDY    68  63  84 SE6       30.15S
WILMINGTON     CLOUDY    69  63  81 E5        30.14F
HUNTINGTON     MOCLDY    67  66  97 E3        30.14F
CHARLESTON     CLEAR     64  63  96 E3        30.16F
PINEVILLE*     PTCLDY    63  63 100 MISG      30.25F
BECKLEY        CLEAR     65  59  81 SE6       30.24F
BLUEFIELD      MOCLDY    68  58  70 E3        30.27F
$$

VAZ002-007-008-TNZ017-027-036-066-071-290800
...SOUTHWEST VIRGINIA/EAST TENNESSEE...

CITY           SKY/WX    TMP DP  RH WIND       PRES   REMARKS
WISE*          CLOUDY    64  61  88 S3        30.23F
JONESVILLE*    CLOUDY    63  63 100 CALM      30.19F
ABINGDON*      PTCLDY    64  62  92 CALM      30.22F
BRISTOL        FOG       64  63  96 CALM      30.19F VSB 1
KNOXVILLE      MOCLDY    69  65  86 CALM      30.15F
OAK RIDGE      PTCLDY    68  64  87 CALM      30.17F
CROSSVILLE     PTCLDY    66  62  87 S3        30.17F
NASHVILLE      CLEAR     67  65  93 S5        30.11F
$$

...KEY TO REMARKS...
VSB - VISIBILITY IN MILES
WCI - WIND CHILL INDEX
HX  - HEAT INDEX

$$



USA.gov is the U.S. government's official web portal to all federal, state and local government web resources and services.